STARLINK-32901, 62895

Orbit data source: Space-Track

STARLINK-32901, 62895 is a payload satellite owned by SpaceX/Seattle (US) in LEO that was launched on Tue, 04 Feb 2025 UTC via an FALCON 9 launch vehicle from the Air Force Eastern Test Range (AFETR). Payload-class satellites include a variety of spacecraft equipped with specific instruments for various scientific and technological missions. These include communications satellites like Starlink; space stations such as the ISS; scientific satellites like the Hubble; Earth observation satellites from companies like Planet Labs, Umbra, and HawkEye 360; GPS; miniature CubeSats for education and research; and military/defense satellites.

Loading next visibility...
Identifier
62895, 2025-024S
Orbit
LEO
Last TLE update
17 hours ago
Origin
Manufacturer
SpaceX/Seattle
Mission
Operational Commercial Communications
Bus & Motor
STARLINK V2M, Unknown motor
Mass
730 kg wet, ~700 kg dry
Launch date (UTC)
2025-02-04 (5 months ago)
Launch vehicle
FALCON 9
Launch site
Air Force Eastern Test Range (AFETR)
Object type
Payload
Rocket body
Debris
Shape & HBR
Box + 2 Pan, 29 m
Radar Cross Section
33.884 m², Large (>1 m²)

Expand to show TLE details & history

TLE from 17 hours ago
0 STARLINK-32901
1 62895U 25024S   25191.47510543  .00004313  00000-0  16616-3 0  9994
2 62895  42.9993 253.1493 0001355 271.4643  88.6053 15.27582988 25143
Epoch: 2025-07-10T11:24Z
TLE epoch observation values (Epoch: 2025-07-10T11:24:09.109Z)
Latitude
-0.00003°
Longitude
153.47046°
Altitude
482.793 km
Speed
7.626 km/s
True Right ascension
16h 52m 35s
True Declination
0° 00' 00"
Sunlit
Object was in full shadow at epoch
Visualization orbit readout
Latitude
-42.33994°
Longitude
45.86585°
Altitude
495.139 km
Speed
7.618 km/s
Apparent Right ascension
07h 09m 51s
Apparent Declination
-48° 10' 20"
Sunlit
Object is in daylight
Visualization observer readout
Local Sidereal Time
16:30:31
Azimuth
240.375° WSW
Elevation
-60.566°
Doppler factor
1
Orbital elements
Apogee altitude
485.915 km
Perigee altitude
484.055 km
Semi-major axis
6,863.122 km
Eccentricity
0.00014
Inclination
42.9993°
RAAN
253.1493°
Arg. of periapsis
271.4643°
True anomaly
Unknown
Mean anomaly
88.6053°
Eccentric anomaly
Unknown
Mean motion
3.81734 °/min
Orbital period
94.31 mins
BSTAR
0.00016616
Loading maneuver chart data...
Loading SW <> Apogee altitude chart data...
Loading historical data...
Loading historical data...
Loading historical data...
Loading historical data...
Loading historical data...
Loading historical data...
Loading historical data...

STARLINK-32901 Visibility forecast

Observer location: undefined°, undefined°

Span
Click to sort rows by Start time (UTC) header in descending order
Start Az.
Max El. time (UTC)
Max El. Az.
Max El.
End time (UTC)
End Az.
4 mins2025-07-11 06:24:40.266Z178.363° S2025-07-11 06:26:40.266Z145.279° SSE14.932°2025-07-11 06:28:40.266Z110.346° ESE
6 mins2025-07-11 08:02:40.266Z237.771° WSW2025-07-11 08:05:40.266Z118.221° SE41.727°2025-07-11 08:08:40.266Z75.093° E
5 mins2025-07-11 09:42:40.266Z289.504° WNW2025-07-11 09:44:40.266Z15.326° NNE38.18°2025-07-11 09:47:40.266Z71.874° E
5 mins2025-07-11 11:21:40.266Z296.09° NW2025-07-11 11:23:40.266Z23.726° NE42.553°2025-07-11 11:26:40.266Z94.785° ESE
5 mins2025-07-11 13:00:40.266Z261.603° W2025-07-11 13:02:40.266Z199.127° SSW31.16°2025-07-11 13:05:40.266Z142.075° SSE
|